Time,TemperatureF,DewpointF,PressureIn,WindDirection,WindDirectionDegrees,WindSpeedMPH,WindSpeedGustMPH,Humidity,HourlyPrecipIn,Conditions,Clouds,dailyrainin,SolarRadiationWatts/m^2,SoftwareType,DateUTC
2014-07-31 00:00:00,71.3,65.5,29.85,ESE,115,0.0,0.0,82,0.00,,,0.00,0,wxd,2014-07-31 04:00:00,
2014-07-31 00:05:00,71.3,65.9,29.84,ESE,115,0.0,0.0,83,0.00,,,0.00,0,wxd,2014-07-31 04:05:00,
2014-07-31 00:10:00,71.1,66.0,29.84,ESE,115,0.0,0.0,84,0.00,,,0.00,0,wxd,2014-07-31 04:10:00,
2014-07-31 00:15:00,71.1,66.4,29.84,ESE,115,0.0,0.0,85,0.00,,,0.00,0,wxd,2014-07-31 04:15:00,
2014-07-31 00:20:00,71.1,66.0,29.84,ESE,115,0.0,0.0,84,0.00,,,0.00,0,wxd,2014-07-31 04:20:00,
2014-07-31 00:25:00,70.9,65.5,29.84,ESE,115,0.0,0.0,83,0.00,,,0.00,0,wxd,2014-07-31 04:25:00,
2014-07-31 00:30:00,70.9,65.5,29.84,ESE,115,0.0,0.0,83,0.00,,,0.00,0,wxd,2014-07-31 04:30:00,
2014-07-31 00:35:00,71.1,66.4,29.83,ESE,115,0.0,0.0,85,0.00,,,0.00,0,wxd,2014-07-31 04:35:00,
2014-07-31 00:40:00,71.1,66.4,29.83,ESE,115,0.0,0.0,85,0.00,,,0.00,0,wxd,2014-07-31 04:40:00,
2014-07-31 00:45:00,71.3,66.5,29.83,ESE,115,0.0,0.0,85,0.00,,,0.00,0,wxd,2014-07-31 04:45:00,
2014-07-31 00:50:00,71.5,66.7,29.83,ESE,115,0.0,0.0,85,0.00,,,0.00,0,wxd,2014-07-31 04:50:00,
2014-07-31 00:55:00,71.5,66.4,29.83,ESE,115,0.0,0.0,84,0.00,,,0.00,0,wxd,2014-07-31 04:55:00,
2014-07-31 01:00:00,71.5,66.4,29.83,ESE,115,0.0,0.0,84,0.00,,,0.00,0,wxd,2014-07-31 05:00:00,
2014-07-31 01:05:00,71.6,66.5,29.83,ESE,115,0.0,0.0,84,0.00,,,0.00,0,wxd,2014-07-31 05:05:00,
2014-07-31 01:10:00,71.6,66.5,29.83,ESE,115,0.0,0.0,84,0.00,,,0.00,0,wxd,2014-07-31 05:10:00,
2014-07-31 01:15:00,71.6,66.5,29.83,ESE,115,0.0,0.0,84,0.00,,,0.00,0,wxd,2014-07-31 05:15:00,
2014-07-31 01:20:00,71.5,66.1,29.82,ESE,115,0.0,0.0,83,0.00,,,0.00,0,wxd,2014-07-31 05:20:00,
2014-07-31 01:25:00,71.5,66.4,29.82,ESE,115,0.0,0.0,84,0.00,,,0.00,0,wxd,2014-07-31 05:25:00,
2014-07-31 01:30:00,71.3,66.2,29.82,ESE,115,0.0,0.0,84,0.00,,,0.00,0,wxd,2014-07-31 05:30:00,
2014-07-31 01:35:00,71.1,66.0,29.82,ESE,115,0.0,0.0,84,0.00,,,0.00,0,wxd,2014-07-31 05:35:00,
2014-07-31 01:40:00,71.1,66.0,29.82,ESE,115,0.0,0.0,84,0.00,,,0.00,0,wxd,2014-07-31 05:40:00,
2014-07-31 01:45:00,70.9,66.2,29.82,ESE,115,0.0,0.0,85,0.00,,,0.00,0,wxd,2014-07-31 05:45:00,
2014-07-31 01:50:00,70.9,66.2,29.82,ESE,115,0.0,0.0,85,0.00,,,0.00,0,wxd,2014-07-31 05:50:00,
2014-07-31 01:55:00,70.9,65.8,29.82,ESE,115,0.0,0.0,84,0.00,,,0.00,0,wxd,2014-07-31 05:55:00,
2014-07-31 02:00:00,70.9,65.8,29.82,ESE,115,0.0,0.0,84,0.00,,,0.00,0,wxd,2014-07-31 06:00:00,
2014-07-31 02:05:00,70.8,65.7,29.82,ESE,115,0.0,0.0,84,0.00,,,0.00,0,wxd,2014-07-31 06:05:00,
2014-07-31 02:10:00,70.8,66.1,29.82,ESE,115,0.0,0.0,85,0.00,,,0.00,0,wxd,2014-07-31 06:10:00,
2014-07-31 02:15:00,70.8,66.1,29.82,ESE,115,0.0,0.0,85,0.00,,,0.00,0,wxd,2014-07-31 06:15:00,
2014-07-31 02:20:00,70.8,66.1,29.81,ESE,115,0.0,0.0,85,0.00,,,0.00,0,wxd,2014-07-31 06:20:00,
2014-07-31 02:25:00,70.8,65.7,29.81,ESE,115,0.0,0.0,84,0.00,,,0.00,0,wxd,2014-07-31 06:25:00,
2014-07-31 02:30:00,70.8,66.1,29.81,ESE,115,0.0,0.0,85,0.00,,,0.00,0,wxd,2014-07-31 06:30:00,
2014-07-31 02:35:00,70.8,66.1,29.81,ESE,115,0.0,0.0,85,0.00,,,0.00,0,wxd,2014-07-31 06:35:00,
2014-07-31 02:40:00,70.6,65.9,29.81,ESE,115,0.0,0.0,85,0.00,,,0.00,0,wxd,2014-07-31 06:40:00,
2014-07-31 02:45:00,70.6,65.9,29.81,ESE,115,0.0,0.0,85,0.00,,,0.00,0,wxd,2014-07-31 06:45:00,
2014-07-31 02:50:00,70.6,65.9,29.81,ESE,115,0.0,0.0,85,0.00,,,0.00,0,wxd,2014-07-31 06:50:00,
2014-07-31 02:55:00,70.6,65.9,29.81,ESE,115,0.0,0.0,85,0.00,,,0.00,0,wxd,2014-07-31 06:55:00,
2014-07-31 03:00:00,70.6,65.9,29.81,ESE,115,0.0,0.0,85,0.00,,,0.00,0,wxd,2014-07-31 07:00:00,
2014-07-31 03:05:00,70.6,65.9,29.81,ESE,115,0.0,0.0,85,0.00,,,0.00,0,wxd,2014-07-31 07:05:00,
2014-07-31 03:10:00,70.6,65.9,29.81,ESE,115,0.0,0.0,85,0.00,,,0.00,0,wxd,2014-07-31 07:10:00,
2014-07-31 03:15:00,70.6,65.9,29.81,ESE,115,0.0,0.0,85,0.00,,,0.00,0,wxd,2014-07-31 07:15:00,
2014-07-31 03:20:00,70.6,65.9,29.81,ESE,115,0.0,0.0,85,0.00,,,0.00,0,wxd,2014-07-31 07:20:00,
2014-07-31 03:25:00,70.4,65.7,29.81,ESE,115,0.0,0.0,85,0.00,,,0.00,0,wxd,2014-07-31 07:25:00,
2014-07-31 03:30:00,70.4,65.7,29.81,ESE,115,0.0,0.0,85,0.00,,,0.00,0,wxd,2014-07-31 07:30:00,
2014-07-31 03:35:00,70.3,65.9,29.80,ESE,115,0.0,0.0,86,0.00,,,0.00,0,wxd,2014-07-31 07:35:00,
2014-07-31 03:40:00,70.3,65.9,29.80,ESE,115,0.0,0.0,86,0.00,,,0.00,0,wxd,2014-07-31 07:40:00,
2014-07-31 03:45:00,70.1,65.7,29.80,ESE,115,0.0,0.0,86,0.00,,,0.00,0,wxd,2014-07-31 07:45:00,
2014-07-31 03:50:00,69.9,65.5,29.80,ESE,115,0.0,0.0,86,0.00,,,0.00,0,wxd,2014-07-31 07:50:00,
2014-07-31 03:55:00,69.9,65.5,29.80,ESE,115,0.0,0.0,86,0.00,,,0.00,0,wxd,2014-07-31 07:55:00,
2014-07-31 04:00:00,69.8,65.7,29.80,ESE,115,0.0,0.0,87,0.00,,,0.00,0,wxd,2014-07-31 08:00:00,
2014-07-31 04:05:00,69.6,65.6,29.81,ESE,115,0.0,0.0,87,0.00,,,0.00,0,wxd,2014-07-31 08:05:00,
2014-07-31 04:10:00,69.4,65.4,29.81,ESE,115,0.0,0.0,87,0.00,,,0.00,0,wxd,2014-07-31 08:10:00,
2014-07-31 04:15:00,69.4,65.4,29.81,ESE,115,0.0,0.0,87,0.00,,,0.00,0,wxd,2014-07-31 08:15:00,
2014-07-31 04:20:00,69.4,65.7,29.81,ESE,115,0.0,0.0,88,0.00,,,0.00,0,wxd,2014-07-31 08:20:00,
2014-07-31 04:25:00,69.3,65.6,29.81,ESE,115,0.0,0.0,88,0.00,,,0.00,0,wxd,2014-07-31 08:25:00,
2014-07-31 04:30:00,69.4,65.7,29.81,ESE,115,0.0,0.0,88,0.00,,,0.00,0,wxd,2014-07-31 08:30:00,
2014-07-31 04:35:00,69.6,66.2,29.80,ESE,115,0.0,0.0,89,0.00,,,0.00,0,wxd,2014-07-31 08:35:00,
2014-07-31 04:40:00,69.6,66.2,29.80,ESE,115,0.0,0.0,89,0.00,,,0.00,0,wxd,2014-07-31 08:40:00,
2014-07-31 04:45:00,69.6,65.9,29.80,ESE,115,0.0,0.0,88,0.00,,,0.00,0,wxd,2014-07-31 08:45:00,
2014-07-31 04:50:00,69.6,65.9,29.80,ESE,115,0.0,0.0,88,0.00,,,0.00,0,wxd,2014-07-31 08:50:00,
2014-07-31 04:55:00,69.6,66.2,29.80,ESE,115,0.0,0.0,89,0.00,,,0.00,0,wxd,2014-07-31 08:55:00,
2014-07-31 05:00:00,69.6,65.9,29.80,ESE,115,0.0,0.0,88,0.00,,,0.00,0,wxd,2014-07-31 09:00:00,
2014-07-31 05:05:00,69.6,66.2,29.80,ESE,115,0.0,0.0,89,0.00,,,0.00,0,wxd,2014-07-31 09:05:00,
2014-07-31 05:10:00,69.6,66.2,29.80,ESE,115,0.0,0.0,89,0.00,,,0.00,0,wxd,2014-07-31 09:10:00,
2014-07-31 05:15:00,69.8,66.4,29.80,ESE,115,0.0,0.0,89,0.00,,,0.00,0,wxd,2014-07-31 09:15:00,
2014-07-31 05:20:00,69.8,66.4,29.80,ESE,115,0.0,0.0,89,0.00,,,0.00,0,wxd,2014-07-31 09:20:00,
2014-07-31 05:25:00,69.8,66.4,29.80,ESE,115,0.0,0.0,89,0.00,,,0.00,0,wxd,2014-07-31 09:25:00,
2014-07-31 05:30:00,69.6,66.2,29.80,ESE,115,0.0,0.0,89,0.00,,,0.00,0,wxd,2014-07-31 09:30:00,
2014-07-31 05:35:00,69.6,66.2,29.80,ESE,115,0.0,0.0,89,0.00,,,0.00,0,wxd,2014-07-31 09:35:00,
2014-07-31 05:40:00,69.6,66.2,29.80,ESE,115,0.0,0.0,89,0.00,,,0.00,0,wxd,2014-07-31 09:40:00,
2014-07-31 05:45:00,69.6,66.2,29.80,ESE,115,0.0,0.0,89,0.00,,,0.00,0,wxd,2014-07-31 09:45:00,
2014-07-31 05:50:00,69.6,66.2,29.80,ESE,115,0.0,0.0,89,0.00,,,0.00,0,wxd,2014-07-31 09:50:00,
2014-07-31 05:55:00,69.6,66.2,29.80,ESE,115,0.0,0.0,89,0.00,,,0.00,0,wxd,2014-07-31 09:55:00,
2014-07-31 06:00:00,69.4,66.0,29.80,ESE,115,0.0,0.0,89,0.00,,,0.00,0,wxd,2014-07-31 10:00:00,
2014-07-31 06:05:00,69.4,66.3,29.81,ESE,115,0.0,0.0,90,0.00,,,0.00,0,wxd,2014-07-31 10:05:00,
2014-07-31 06:15:00,69.4,66.3,29.81,ESE,115,0.0,0.0,90,0.00,,,0.00,0,wxd,2014-07-31 10:15:00,
2014-07-31 06:20:00,69.6,66.2,29.80,ESE,115,0.0,0.0,89,0.00,,,0.00,0,wxd,2014-07-31 10:20:00,
2014-07-31 06:25:00,69.6,66.2,29.80,ESE,115,0.0,0.0,89,0.00,,,0.00,0,wxd,2014-07-31 10:25:00,
2014-07-31 06:30:00,69.8,66.4,29.80,ESE,115,0.0,0.0,89,0.00,,,0.00,0,wxd,2014-07-31 10:30:00,
2014-07-31 06:35:00,69.8,66.4,29.82,ESE,115,0.0,0.0,89,0.00,,,0.00,0,wxd,2014-07-31 10:35:00,
2014-07-31 06:40:00,69.9,66.5,29.82,ESE,115,0.0,0.0,89,0.00,,,0.00,0,wxd,2014-07-31 10:40:00,
2014-07-31 06:45:00,69.9,66.5,29.82,ESE,115,0.0,0.0,89,0.00,,,0.00,0,wxd,2014-07-31 10:45:00,
2014-07-31 06:50:00,69.8,66.4,29.83,ESE,115,0.0,0.0,89,0.00,,,0.00,0,wxd,2014-07-31 10:50:00,
2014-07-31 06:55:00,69.8,66.4,29.83,ESE,115,0.0,0.0,89,0.00,,,0.00,0,wxd,2014-07-31 10:55:00,
2014-07-31 07:00:00,69.8,66.4,29.83,ESE,115,0.0,0.0,89,0.00,,,0.00,7,wxd,2014-07-31 11:00:00,
2014-07-31 07:05:00,69.8,66.4,29.84,ESE,115,0.0,0.0,89,0.00,,,0.00,11,wxd,2014-07-31 11:05:00,
2014-07-31 07:10:00,69.8,66.4,29.84,ESE,115,0.0,0.0,89,0.00,,,0.00,14,wxd,2014-07-31 11:10:00,
2014-07-31 07:15:00,69.8,66.4,29.84,ESE,115,0.0,0.0,89,0.00,,,0.00,16,wxd,2014-07-31 11:15:00,
2014-07-31 07:20:00,69.9,66.8,29.85,ESE,115,0.0,0.0,90,0.00,,,0.00,16,wxd,2014-07-31 11:20:00,
2014-07-31 07:25:00,69.9,66.5,29.85,ESE,115,0.0,0.0,89,0.00,,,0.00,14,wxd,2014-07-31 11:25:00,
2014-07-31 07:30:00,70.1,66.7,29.85,ESE,115,0.0,0.0,89,0.00,,,0.00,12,wxd,2014-07-31 11:30:00,
2014-07-31 07:35:00,70.1,66.7,29.85,ESE,115,0.0,0.0,89,0.00,,,0.00,12,wxd,2014-07-31 11:35:00,
2014-07-31 07:40:00,70.1,66.7,29.85,ESE,115,0.0,0.0,89,0.00,,,0.00,14,wxd,2014-07-31 11:40:00,
2014-07-31 07:45:00,70.1,66.7,29.85,ESE,115,0.0,0.0,89,0.00,,,0.00,14,wxd,2014-07-31 11:45:00,
2014-07-31 07:50:00,70.3,66.9,29.87,ESE,115,0.0,0.0,89,0.00,,,0.00,14,wxd,2014-07-31 11:50:00,
2014-07-31 07:55:00,70.3,66.9,29.87,ESE,115,0.0,0.0,89,0.00,,,0.00,14,wxd,2014-07-31 11:55:00,
2014-07-31 08:00:00,70.3,66.9,29.87,ESE,115,0.0,0.0,89,0.00,,,0.00,16,wxd,2014-07-31 12:00:00,
2014-07-31 08:05:00,70.3,66.9,29.88,ESE,115,0.0,0.0,89,0.00,,,0.00,25,wxd,2014-07-31 12:05:00,
2014-07-31 08:10:00,70.3,66.9,29.88,ESE,115,0.0,0.0,89,0.00,,,0.00,30,wxd,2014-07-31 12:10:00,
2014-07-31 08:15:00,70.3,66.9,29.88,ESE,115,0.0,0.0,89,0.00,,,0.00,35,wxd,2014-07-31 12:15:00,
2014-07-31 08:20:00,70.4,67.0,29.88,ESE,115,0.0,0.0,89,0.00,,,0.00,37,wxd,2014-07-31 12:20:00,
2014-07-31 08:25:00,70.4,67.0,29.88,ESE,115,0.0,0.0,89,0.00,,,0.00,33,wxd,2014-07-31 12:25:00,
2014-07-31 08:30:00,70.4,67.0,29.88,ESE,115,0.0,0.0,89,0.00,,,0.00,26,wxd,2014-07-31 12:30:00,
2014-07-31 08:35:00,70.4,67.0,29.89,ESE,115,0.0,0.0,89,0.00,,,0.00,37,wxd,2014-07-31 12:35:00,
2014-07-31 08:40:00,70.4,67.0,29.89,ESE,115,0.0,0.0,89,0.00,,,0.00,33,wxd,2014-07-31 12:40:00,
2014-07-31 08:45:00,70.4,67.0,29.89,ESE,115,0.0,0.0,89,0.00,,,0.00,39,wxd,2014-07-31 12:45:00,
2014-07-31 08:50:00,70.4,67.0,29.89,ESE,115,0.0,0.0,89,0.00,,,0.00,51,wxd,2014-07-31 12:50:00,
2014-07-31 08:55:00,70.4,67.0,29.89,ESE,115,0.0,0.0,89,0.00,,,0.00,40,wxd,2014-07-31 12:55:00,
2014-07-31 09:00:00,70.4,67.0,29.89,ESE,115,0.0,0.0,89,0.00,,,0.00,58,wxd,2014-07-31 13:00:00,
2014-07-31 09:05:00,70.4,67.0,29.90,ESE,115,0.0,0.0,89,0.00,,,0.00,62,wxd,2014-07-31 13:05:00,
2014-07-31 09:10:00,70.4,67.0,29.90,SSE,167,0.0,0.0,89,0.00,,,0.00,56,wxd,2014-07-31 13:10:00,
2014-07-31 09:15:00,70.4,66.7,29.90,SSW,196,0.0,0.0,88,0.00,,,0.00,69,wxd,2014-07-31 13:15:00,
2014-07-31 09:20:00,70.4,67.0,29.90,SSW,208,0.0,0.0,89,0.00,,,0.00,62,wxd,2014-07-31 13:20:00,
2014-07-31 09:25:00,70.4,66.7,29.90,SSW,208,0.0,0.0,88,0.00,,,0.00,86,wxd,2014-07-31 13:25:00,
2014-07-31 09:30:00,70.4,67.0,29.90,SSW,208,0.0,0.0,89,0.00,,,0.00,53,wxd,2014-07-31 13:30:00,
2014-07-31 09:35:00,70.4,66.7,29.91,SW,217,0.0,0.0,88,0.00,,,0.00,76,wxd,2014-07-31 13:35:00,
2014-07-31 09:40:00,70.4,66.7,29.91,SW,235,0.0,0.0,88,0.00,,,0.00,74,wxd,2014-07-31 13:40:00,
2014-07-31 09:45:00,70.4,66.7,29.91,SW,234,0.0,0.0,88,0.00,,,0.00,81,wxd,2014-07-31 13:45:00,
2014-07-31 09:50:00,70.3,66.6,29.91,SW,233,0.0,0.0,88,0.00,,,0.00,53,wxd,2014-07-31 13:50:00,
2014-07-31 09:55:00,70.3,66.6,29.91,WNW,298,0.0,0.0,88,0.00,,,0.00,39,wxd,2014-07-31 13:55:00,
2014-07-31 10:00:00,70.3,66.6,29.91,WNW,300,0.0,0.0,88,0.00,,,0.00,35,wxd,2014-07-31 14:00:00,
2014-07-31 10:05:00,70.3,66.6,29.91,NNW,343,0.0,0.0,88,0.00,,,0.00,35,wxd,2014-07-31 14:05:00,
2014-07-31 10:10:00,70.1,66.4,29.91,North,355,0.0,0.0,88,0.00,,,0.00,47,wxd,2014-07-31 14:10:00,
2014-07-31 10:15:00,69.9,66.5,29.91,North,355,0.0,0.0,89,0.00,,,0.00,76,wxd,2014-07-31 14:15:00,
2014-07-31 10:20:00,69.8,66.4,29.90,North,355,0.0,0.0,89,0.00,,,0.00,60,wxd,2014-07-31 14:20:00,
2014-07-31 10:25:00,69.8,66.7,29.90,NNW,341,0.0,2.0,90,0.00,,,0.00,47,wxd,2014-07-31 14:25:00,
2014-07-31 10:30:00,69.9,66.8,29.90,WSW,247,0.0,0.0,90,0.00,,,0.00,56,wxd,2014-07-31 14:30:00,
2014-07-31 10:35:00,69.9,66.5,29.91,WSW,242,0.0,0.0,89,0.00,,,0.00,53,wxd,2014-07-31 14:35:00,
2014-07-31 10:40:00,69.9,66.8,29.91,WSW,244,0.0,0.0,90,0.00,,,0.00,40,wxd,2014-07-31 14:40:00,
2014-07-31 10:45:00,69.9,66.5,29.91,WSW,240,0.0,0.0,89,0.00,,,0.00,58,wxd,2014-07-31 14:45:00,
2014-07-31 10:50:00,69.9,66.5,29.92,WSW,240,0.0,0.0,89,0.00,,,0.00,53,wxd,2014-07-31 14:50:00,
2014-07-31 10:55:00,69.9,66.5,29.92,WSW,240,0.0,0.0,89,0.00,,,0.00,54,wxd,2014-07-31 14:55:00,
2014-07-31 11:00:00,69.8,66.4,29.92,WSW,240,0.0,0.0,89,0.00,,,0.00,70,wxd,2014-07-31 15:00:00,
2014-07-31 11:05:00,69.8,66.4,29.92,West,269,0.0,0.0,89,0.00,,,0.00,47,wxd,2014-07-31 15:05:00,
2014-07-31 11:10:00,69.8,66.4,29.92,West,271,0.0,0.0,89,0.00,,,0.00,63,wxd,2014-07-31 15:10:00,
2014-07-31 11:15:00,69.8,66.7,29.92,West,271,0.0,0.0,90,0.00,,,0.00,54,wxd,2014-07-31 15:15:00,
2014-07-31 11:20:00,69.8,66.7,29.92,West,271,0.0,0.0,90,0.00,,,0.00,44,wxd,2014-07-31 15:20:00,
2014-07-31 11:25:00,69.8,66.7,29.92,West,264,0.0,2.0,90,0.00,,,0.00,39,wxd,2014-07-31 15:25:00,
2014-07-31 11:30:00,69.6,66.8,29.92,WSW,253,0.0,0.0,91,0.00,,,0.00,40,wxd,2014-07-31 15:30:00,
2014-07-31 11:35:00,69.6,66.8,29.92,WSW,253,0.0,0.0,91,0.00,,,0.00,46,wxd,2014-07-31 15:35:00,
2014-07-31 11:40:00,69.4,67.0,29.92,West,275,0.0,0.0,92,0.00,,,0.00,53,wxd,2014-07-31 15:40:00,
2014-07-31 11:45:00,69.4,67.0,29.92,West,279,0.0,0.0,92,0.00,,,0.00,93,wxd,2014-07-31 15:45:00,
2014-07-31 11:50:00,69.4,67.0,29.92,West,262,0.0,0.0,92,0.00,,,0.00,84,wxd,2014-07-31 15:50:00,
2014-07-31 11:55:00,69.3,66.9,29.92,West,262,0.0,0.0,92,0.00,,,0.00,65,wxd,2014-07-31 15:55:00,
2014-07-31 12:00:00,69.4,67.3,29.92,West,262,0.0,0.0,93,0.00,,,0.00,63,wxd,2014-07-31 16:00:00,
2014-07-31 12:05:00,69.4,67.3,29.92,West,262,0.0,0.0,93,0.00,,,0.00,97,wxd,2014-07-31 16:05:00,
2014-07-31 12:10:00,69.4,67.3,29.92,West,262,0.0,0.0,93,0.00,,,0.00,102,wxd,2014-07-31 16:10:00,
2014-07-31 12:15:00,69.3,67.2,29.92,WSW,249,0.0,0.0,93,0.00,,,0.00,100,wxd,2014-07-31 16:15:00,
2014-07-31 12:20:00,69.4,67.3,29.93,WSW,244,0.0,0.0,93,0.00,,,0.00,86,wxd,2014-07-31 16:20:00,
2014-07-31 12:25:00,69.4,67.3,29.93,WSW,253,0.0,0.0,93,0.00,,,0.00,83,wxd,2014-07-31 16:25:00,
2014-07-31 12:30:00,69.4,67.3,29.93,WSW,253,0.0,0.0,93,0.00,,,0.00,125,wxd,2014-07-31 16:30:00,
2014-07-31 12:35:00,69.4,67.0,29.93,WSW,253,0.0,0.0,92,0.00,,,0.00,120,wxd,2014-07-31 16:35:00,
2014-07-31 12:40:00,69.4,67.3,29.93,WSW,253,0.0,0.0,93,0.00,,,0.00,100,wxd,2014-07-31 16:40:00,
2014-07-31 12:45:00,69.6,67.5,29.93,WSW,253,0.0,0.0,93,0.00,,,0.00,118,wxd,2014-07-31 16:45:00,
2014-07-31 12:50:00,69.8,67.7,29.92,WSW,253,0.0,0.0,93,0.00,,,0.00,185,wxd,2014-07-31 16:50:00,
2014-07-31 12:55:00,69.9,67.8,29.92,WSW,253,0.0,1.0,93,0.00,,,0.00,151,wxd,2014-07-31 16:55:00,
2014-07-31 13:00:00,70.1,68.0,29.92,WSW,252,0.0,0.0,93,0.00,,,0.00,169,wxd,2014-07-31 17:00:00,
2014-07-31 13:05:00,70.3,67.9,29.92,WSW,248,0.0,0.0,92,0.00,,,0.00,158,wxd,2014-07-31 17:05:00,
2014-07-31 13:10:00,70.3,67.9,29.92,WSW,248,0.0,0.0,92,0.00,,,0.00,91,wxd,2014-07-31 17:10:00,
2014-07-31 13:15:00,70.3,67.9,29.92,WSW,247,0.0,0.0,92,0.00,,,0.00,62,wxd,2014-07-31 17:15:00,
2014-07-31 13:20:00,70.3,67.5,29.93,WSW,240,0.0,0.0,91,0.00,,,0.00,60,wxd,2014-07-31 17:20:00,
2014-07-31 13:25:00,70.3,67.5,29.93,WSW,247,0.0,0.0,91,0.00,,,0.00,77,wxd,2014-07-31 17:25:00,
2014-07-31 13:30:00,70.1,67.3,29.93,West,264,0.0,4.0,91,0.00,,,0.00,98,wxd,2014-07-31 17:30:00,
2014-07-31 13:35:00,70.1,67.3,29.93,West,260,0.0,1.0,91,0.00,,,0.00,100,wxd,2014-07-31 17:35:00,
2014-07-31 13:40:00,70.1,67.3,29.93,West,265,0.0,1.0,91,0.00,,,0.00,156,wxd,2014-07-31 17:40:00,
2014-07-31 13:45:00,70.3,67.5,29.93,West,276,0.0,1.0,91,0.00,,,0.00,105,wxd,2014-07-31 17:45:00,
2014-07-31 13:50:00,70.3,67.5,29.93,West,275,0.0,1.0,91,0.00,,,0.00,116,wxd,2014-07-31 17:50:00,
2014-07-31 13:55:00,70.3,67.5,29.93,West,276,0.0,1.0,91,0.01,RA,,0.01,120,wxd,2014-07-31 17:55:00,
2014-07-31 14:00:00,70.3,67.5,29.93,NW,313,0.0,4.0,91,0.00,,,0.01,100,wxd,2014-07-31 18:00:00,
2014-07-31 14:05:00,70.3,67.5,29.93,NW,307,0.0,3.0,91,0.00,,,0.01,107,wxd,2014-07-31 18:05:00,
2014-07-31 14:10:00,70.3,67.5,29.93,SSW,208,0.0,2.0,91,0.00,,,0.01,47,wxd,2014-07-31 18:10:00,
2014-07-31 14:15:00,70.3,67.5,29.93,SSW,213,0.0,0.0,91,0.00,,,0.01,39,wxd,2014-07-31 18:15:00,
2014-07-31 14:20:00,70.1,67.3,29.93,SSW,213,0.0,0.0,91,0.00,,,0.01,21,wxd,2014-07-31 18:20:00,
2014-07-31 14:25:00,69.9,67.1,29.93,SSW,213,0.0,0.0,91,0.00,,,0.01,12,wxd,2014-07-31 18:25:00,
2014-07-31 14:30:00,69.8,67.0,29.93,SSW,213,0.0,0.0,91,0.00,,,0.01,26,wxd,2014-07-31 18:30:00,
2014-07-31 14:35:00,69.8,67.0,29.95,SSW,213,0.0,0.0,91,0.01,RA,,0.02,53,wxd,2014-07-31 18:35:00,
2014-07-31 14:40:00,69.6,67.2,29.95,SSW,213,0.0,0.0,92,0.02,RA,,0.04,40,wxd,2014-07-31 18:40:00,
2014-07-31 14:45:00,69.6,67.2,29.95,SSW,213,0.0,0.0,92,0.01,RA,,0.05,51,wxd,2014-07-31 18:45:00,
2014-07-31 14:50:00,69.8,67.7,29.94,SW,214,0.0,1.0,93,0.00,,,0.05,69,wxd,2014-07-31 18:50:00,
2014-07-31 14:55:00,69.6,67.5,29.94,West,267,0.0,3.0,93,0.00,,,0.05,76,wxd,2014-07-31 18:55:00,
2014-07-31 15:00:00,69.4,67.3,29.94,SW,223,0.0,2.0,93,0.00,,,0.05,74,wxd,2014-07-31 19:00:00,
2014-07-31 15:05:00,69.4,67.3,29.93,SW,223,0.0,1.0,93,0.00,,,0.05,163,wxd,2014-07-31 19:05:00,
2014-07-31 15:10:00,69.4,67.6,29.93,SW,224,0.0,1.0,94,0.00,,,0.05,195,wxd,2014-07-31 19:10:00,
2014-07-31 15:15:00,69.6,67.8,29.93,SW,225,0.0,1.0,94,0.00,,,0.05,272,wxd,2014-07-31 19:15:00,
2014-07-31 15:20:00,69.6,67.8,29.92,SW,225,0.0,0.0,94,0.00,,,0.05,373,wxd,2014-07-31 19:20:00,
2014-07-31 15:25:00,69.8,68.3,29.92,SW,225,0.0,1.0,95,0.00,,,0.05,230,wxd,2014-07-31 19:25:00,
2014-07-31 15:30:00,69.9,68.1,29.92,SW,225,0.0,0.0,94,0.00,,,0.05,188,wxd,2014-07-31 19:30:00,
2014-07-31 15:35:00,69.8,68.0,29.92,SW,220,0.0,0.0,94,0.00,,,0.05,297,wxd,2014-07-31 19:35:00,
2014-07-31 15:40:00,69.8,68.0,29.92,SW,229,0.0,1.0,94,0.00,,,0.05,227,wxd,2014-07-31 19:40:00,
2014-07-31 15:45:00,69.8,68.0,29.92,SW,216,0.0,2.0,94,0.00,,,0.05,236,wxd,2014-07-31 19:45:00,
2014-07-31 15:50:00,69.9,67.8,29.91,SW,233,0.0,4.0,93,0.00,,,0.05,350,wxd,2014-07-31 19:50:00,
2014-07-31 15:55:00,70.1,68.0,29.91,WSW,240,0.0,1.0,93,0.00,,,0.05,276,wxd,2014-07-31 19:55:00,
2014-07-31 16:00:00,70.4,68.3,29.91,WSW,238,0.0,1.0,93,0.00,,,0.05,188,wxd,2014-07-31 20:00:00,
2014-07-31 16:05:00,70.4,68.0,29.91,WSW,246,0.0,1.0,92,0.00,,,0.05,302,wxd,2014-07-31 20:05:00,
2014-07-31 16:10:00,70.4,67.6,29.91,WSW,247,0.0,1.0,91,0.00,,,0.05,236,wxd,2014-07-31 20:10:00,
2014-07-31 16:15:00,70.4,67.0,29.91,NW,326,0.0,2.0,89,0.00,,,0.05,193,wxd,2014-07-31 20:15:00,
2014-07-31 16:20:00,70.4,67.0,29.91,SW,216,0.0,3.0,89,0.00,,,0.05,265,wxd,2014-07-31 20:20:00,
2014-07-31 16:25:00,70.3,65.9,29.91,ENE,62,0.0,2.0,86,0.00,,,0.05,204,wxd,2014-07-31 20:25:00,
2014-07-31 16:30:00,70.3,65.9,29.91,ENE,61,0.0,1.0,86,0.00,,,0.05,141,wxd,2014-07-31 20:30:00,
2014-07-31 16:35:00,70.3,65.6,29.90,NE,42,0.0,4.0,85,0.00,,,0.05,116,wxd,2014-07-31 20:35:00,
2014-07-31 16:40:00,70.4,66.3,29.90,NE,41,0.0,1.0,87,0.00,,,0.05,74,wxd,2014-07-31 20:40:00,
2014-07-31 16:45:00,70.4,66.0,29.90,NW,317,0.0,4.0,86,0.00,,,0.05,63,wxd,2014-07-31 20:45:00,
2014-07-31 16:50:00,70.3,65.6,29.91,West,279,0.0,1.0,85,0.00,,,0.05,81,wxd,2014-07-31 20:50:00,
2014-07-31 16:55:00,70.1,65.4,29.91,West,281,0.0,1.0,85,0.00,,,0.05,88,wxd,2014-07-31 20:55:00,
2014-07-31 17:00:00,70.1,65.7,29.91,West,281,0.0,1.0,86,0.00,,,0.05,77,wxd,2014-07-31 21:00:00,
2014-07-31 17:05:00,70.1,65.4,29.92,West,275,0.0,1.0,85,0.00,,,0.05,62,wxd,2014-07-31 21:05:00,
2014-07-31 17:10:00,69.9,65.2,29.92,WSW,251,0.0,0.0,85,0.00,,,0.05,42,wxd,2014-07-31 21:10:00,
2014-07-31 17:15:00,69.9,64.8,29.92,WSW,252,0.0,1.0,84,0.00,,,0.05,35,wxd,2014-07-31 21:15:00,
2014-07-31 17:20:00,69.6,63.9,29.92,West,259,0.0,1.0,82,0.00,,,0.05,39,wxd,2014-07-31 21:20:00,
2014-07-31 17:25:00,69.6,63.5,29.92,West,260,0.0,1.0,81,0.00,,,0.05,53,wxd,2014-07-31 21:25:00,
2014-07-31 17:30:00,69.4,63.3,29.92,WSW,255,0.0,0.0,81,0.00,,,0.05,49,wxd,2014-07-31 21:30:00,
2014-07-31 17:35:00,69.4,63.7,29.91,WSW,255,0.0,0.0,82,0.00,,,0.05,42,wxd,2014-07-31 21:35:00,
2014-07-31 17:40:00,69.4,64.3,29.91,WSW,257,0.0,2.0,84,0.00,,,0.05,39,wxd,2014-07-31 21:40:00,
2014-07-31 17:45:00,69.4,64.0,29.91,WSW,257,0.0,0.0,83,0.00,,,0.05,53,wxd,2014-07-31 21:45:00,
2014-07-31 17:50:00,69.4,64.3,29.91,WSW,257,0.0,0.0,84,0.00,,,0.05,63,wxd,2014-07-31 21:50:00,
2014-07-31 17:55:00,69.4,64.7,29.91,West,259,0.0,2.0,85,0.00,,,0.05,44,wxd,2014-07-31 21:55:00,
2014-07-31 18:00:00,69.4,64.3,29.91,West,259,0.0,0.0,84,0.00,,,0.05,33,wxd,2014-07-31 22:00:00,
2014-07-31 18:05:00,69.4,64.3,29.92,West,259,0.0,0.0,84,0.00,,,0.05,26,wxd,2014-07-31 22:05:00,
2014-07-31 18:10:00,69.3,64.6,29.92,West,259,0.0,1.0,85,0.00,,,0.05,35,wxd,2014-07-31 22:10:00,
2014-07-31 18:15:00,69.3,63.9,29.92,West,259,0.0,0.0,83,0.00,,,0.05,35,wxd,2014-07-31 22:15:00,
2014-07-31 18:20:00,69.3,64.2,29.92,West,259,0.0,0.0,84,0.00,,,0.05,37,wxd,2014-07-31 22:20:00,
2014-07-31 18:25:00,69.4,64.3,29.92,WSW,254,0.0,2.0,84,0.00,,,0.05,19,wxd,2014-07-31 22:25:00,
2014-07-31 18:30:00,69.6,64.5,29.92,ESE,115,0.0,5.0,84,0.00,,,0.05,12,wxd,2014-07-31 22:30:00,
2014-07-31 18:35:00,69.6,64.5,29.94,South,177,0.0,1.0,84,0.00,,,0.05,30,wxd,2014-07-31 22:35:00,
2014-07-31 18:40:00,69.6,64.2,29.94,South,180,0.0,1.0,83,0.00,,,0.05,12,wxd,2014-07-31 22:40:00,
2014-07-31 18:45:00,69.8,64.7,29.94,SSE,156,0.0,3.0,84,0.00,,,0.05,19,wxd,2014-07-31 22:45:00,
2014-07-31 18:50:00,69.8,65.1,29.94,East,85,0.0,1.0,85,0.00,,,0.05,25,wxd,2014-07-31 22:50:00,
2014-07-31 18:55:00,69.8,65.1,29.94,East,85,0.0,0.0,85,0.00,,,0.05,14,wxd,2014-07-31 22:55:00,
2014-07-31 19:00:00,69.4,64.7,29.94,East,85,0.0,0.0,85,0.00,,,0.05,11,wxd,2014-07-31 23:00:00,
2014-07-31 19:05:00,69.3,64.9,29.94,ESE,115,0.0,1.0,86,0.00,,,0.05,7,wxd,2014-07-31 23:05:00,
2014-07-31 19:10:00,69.3,64.9,29.94,SE,132,0.0,0.0,86,0.00,,,0.05,9,wxd,2014-07-31 23:10:00,
2014-07-31 19:15:00,69.1,64.7,29.94,SE,132,0.0,0.0,86,0.00,,,0.05,9,wxd,2014-07-31 23:15:00,
2014-07-31 19:20:00,69.1,65.1,29.94,SE,132,0.0,0.0,87,0.00,,,0.05,7,wxd,2014-07-31 23:20:00,
2014-07-31 19:25:00,69.1,65.4,29.94,SE,132,0.0,0.0,88,0.01,RA,,0.06,9,wxd,2014-07-31 23:25:00,
2014-07-31 19:30:00,68.9,65.2,29.94,SE,132,0.0,0.0,88,0.00,,,0.06,11,wxd,2014-07-31 23:30:00,
2014-07-31 19:35:00,68.9,65.2,29.94,SE,132,0.0,0.0,88,0.00,,,0.06,12,wxd,2014-07-31 23:35:00,
2014-07-31 19:40:00,68.9,65.5,29.94,SE,132,0.0,0.0,89,0.00,,,0.06,11,wxd,2014-07-31 23:40:00,
2014-07-31 19:45:00,68.8,65.4,29.94,SE,132,0.0,0.0,89,0.00,,,0.06,9,wxd,2014-07-31 23:45:00,
2014-07-31 19:50:00,68.8,65.4,29.94,SE,132,0.0,0.0,89,0.00,,,0.06,7,wxd,2014-07-31 23:50:00,
2014-07-31 19:55:00,68.6,65.5,29.94,SE,132,0.0,0.0,90,0.00,,,0.06,7,wxd,2014-07-31 23:55:00,
2014-07-31 20:00:00,68.6,65.9,29.94,SE,132,0.0,0.0,91,0.00,,,0.06,0,wxd,2014-08-01 00:00:00,
2014-07-31 20:05:00,68.4,65.7,29.95,SE,132,0.0,0.0,91,0.00,,,0.06,0,wxd,2014-08-01 00:05:00,
2014-07-31 20:10:00,68.4,65.7,29.95,SE,132,0.0,0.0,91,0.00,,,0.06,0,wxd,2014-08-01 00:10:00,
2014-07-31 20:15:00,68.4,65.7,29.95,SE,132,0.0,0.0,91,0.01,RA,,0.07,0,wxd,2014-08-01 00:15:00,
2014-07-31 20:20:00,68.4,66.0,29.95,SE,132,0.0,0.0,92,0.01,RA,,0.08,0,wxd,2014-08-01 00:20:00,
2014-07-31 20:25:00,68.4,66.0,29.95,SE,132,0.0,0.0,92,0.01,RA,,0.09,0,wxd,2014-08-01 00:25:00,
2014-07-31 20:30:00,68.3,65.9,29.95,SE,132,0.0,0.0,92,0.01,RA,,0.10,0,wxd,2014-08-01 00:30:00,
2014-07-31 20:35:00,68.3,65.9,29.96,SE,132,0.0,0.0,92,0.00,,,0.10,0,wxd,2014-08-01 00:35:00,
2014-07-31 20:40:00,68.3,65.9,29.96,SE,132,0.0,0.0,92,0.00,,,0.10,0,wxd,2014-08-01 00:40:00,
2014-07-31 20:45:00,68.3,66.2,29.96,SE,132,0.0,0.0,93,0.01,RA,,0.11,0,wxd,2014-08-01 00:45:00,
2014-07-31 20:50:00,68.3,66.2,29.96,SE,132,0.0,0.0,93,0.00,,,0.11,0,wxd,2014-08-01 00:50:00,
2014-07-31 20:55:00,68.1,66.0,29.96,SE,132,0.0,0.0,93,0.01,RA,,0.12,0,wxd,2014-08-01 00:55:00,
2014-07-31 21:00:00,68.1,66.0,29.96,SE,132,0.0,0.0,93,0.00,,,0.12,0,wxd,2014-08-01 01:00:00,
2014-07-31 21:05:00,68.1,66.0,29.95,SE,132,0.0,0.0,93,0.01,RA,,0.13,0,wxd,2014-08-01 01:05:00,
2014-07-31 21:10:00,67.9,65.8,29.95,SE,132,0.0,0.0,93,0.00,,,0.13,0,wxd,2014-08-01 01:10:00,
2014-07-31 21:15:00,67.9,66.1,29.95,SE,133,0.0,0.0,94,0.01,RA,,0.14,0,wxd,2014-08-01 01:15:00,
2014-07-31 21:20:00,67.9,66.1,29.95,SE,134,0.0,0.0,94,0.02,RA,,0.16,0,wxd,2014-08-01 01:20:00,
2014-07-31 21:25:00,67.9,66.1,29.95,SE,134,0.0,0.0,94,0.02,RA,,0.18,0,wxd,2014-08-01 01:25:00,
2014-07-31 21:30:00,67.9,66.1,29.95,SE,134,0.0,0.0,94,0.01,RA,,0.19,0,wxd,2014-08-01 01:30:00,
2014-07-31 21:35:00,67.8,66.3,29.94,SE,134,0.0,0.0,95,0.02,RA,,0.21,0,wxd,2014-08-01 01:35:00,
2014-07-31 21:40:00,67.8,66.3,29.94,SE,134,0.0,0.0,95,0.01,RA,,0.22,0,wxd,2014-08-01 01:40:00,
2014-07-31 21:45:00,67.8,66.3,29.94,SE,133,0.0,0.0,95,0.02,RA,,0.24,0,wxd,2014-08-01 01:45:00,
2014-07-31 21:50:00,67.6,66.1,29.94,SE,124,0.0,0.0,95,0.03,RA,,0.27,0,wxd,2014-08-01 01:50:00,